| time (UTC) | temp F | wind direction | speed MPH | gust MPH | rain 1hr in | rain 24hr in | rain mn in | humidity % | barometer mb |
| 20260505072609 | 69 | 103 | 1.0 | 2.0 | 0.00 | 0.00 | 0.00 | 54 | 1019.5 |
| 20260505072538 | 70 | 150 | 0.0 | 2.0 | 0.00 | 0.00 | 0.00 | 54 | 1019.3 |
| 20260505071609 | 70 | 150 | 0.0 | 2.0 | 0.00 | 0.00 | 0.00 | 53 | 1019.3 |
| 20260505071106 | 70 | 171 | 0.0 | 5.0 | 0.00 | 0.00 | 0.00 | 53 | 1019.1 |
| 20260505070606 | 70 | 155 | 1.0 | 6.0 | 0.00 | 0.00 | 0.00 | 52 | 1019.1 |
| 20260505070113 | 71 | 153 | 2.0 | 6.0 | 0.00 | 0.00 | 0.00 | 51 | 1019.0 |
| 20260505065939 | 71 | 171 | 0.0 | 6.0 | 0.00 | 0.00 | 0.00 | 49 | 1018.9 |
| 20260505065104 | 71 | 156 | 1.0 | 6.0 | 0.00 | 0.00 | 0.00 | 47 | 1018.8 |
| 20260505064602 | 72 | 202 | 2.0 | 5.0 | 0.00 | 0.00 | 0.00 | 44 | 1018.7 |
| 20260505064105 | 72 | 266 | 2.0 | 5.0 | 0.00 | 0.00 | 0.00 | 44 | 1018.6 |
| 20260505063947 | 72 | 215 | 1.0 | 6.0 | 0.00 | 0.00 | 0.00 | 44 | 1018.5 |
| 20260505063103 | 73 | 231 | 3.0 | 7.0 | 0.00 | 0.00 | 0.00 | 43 | 1018.5 |
| 20260505062605 | 73 | 240 | 2.0 | 8.0 | 0.00 | 0.00 | 0.00 | 43 | 1018.5 |
| 20260505062105 | 73 | 220 | 2.0 | 8.0 | 0.00 | 0.00 | 0.00 | 43 | 1018.4 |
| 20260505061605 | 73 | 242 | 3.0 | 7.0 | 0.00 | 0.00 | 0.00 | 43 | 1018.4 |
| 20260505061109 | 73 | 240 | 2.0 | 6.0 | 0.00 | 0.00 | 0.00 | 43 | 1018.5 |
| 20260505061017 | 73 | 215 | 1.0 | 7.0 | 0.00 | 0.00 | 0.00 | 43 | 1018.4 |
| 20260505060106 | 74 | 240 | 4.0 | 10.0 | 0.00 | 0.00 | 0.00 | 43 | 1018.5 |
| 20260505055609 | 74 | 185 | 2.0 | 9.0 | 0.00 | 0.00 | 0.00 | 41 | 1018.6 |
| 20260505055102 | 74 | 210 | 4.0 | 8.0 | 0.00 | 0.00 | 0.00 | 42 | 1018.4 |
| 20260505054602 | 74 | 232 | 3.0 | 8.0 | 0.00 | 0.00 | 0.00 | 42 | 1018.5 |
| 20260505054103 | 74 | 219 | 2.0 | 6.0 | 0.00 | 0.00 | 0.00 | 41 | 1018.4 |
| 20260505053603 | 74 | 194 | 2.0 | 8.0 | 0.00 | 0.00 | 0.00 | 41 | 1018.4 |
| 20260505053103 | 74 | 302 | 4.0 | 8.0 | 0.00 | 0.00 | 0.00 | 43 | 1018.4 |
| 20260505052603 | 74 | 257 | 2.0 | 8.0 | 0.00 | 0.00 | 0.00 | 43 | 1018.4 |
| 20260505052104 | 74 | 268 | 1.0 | 8.0 | 0.00 | 0.00 | 0.00 | 45 | 1018.5 |
| 20260505051605 | 74 | 279 | 4.0 | 7.0 | 0.00 | 0.00 | 0.00 | 43 | 1018.4 |
| 20260505051104 | 75 | 211 | 3.0 | 6.0 | 0.00 | 0.00 | 0.00 | 44 | 1018.4 |
| 20260505050608 | 74 | 261 | 2.0 | 7.0 | 0.00 | 0.00 | 0.00 | 46 | 1018.4 |
| 20260505050108 | 74 | 270 | 4.0 | 8.0 | 0.00 | 0.00 | 0.00 | 44 | 1018.4 |
| 20260505041607 | 74 | 211 | 4.0 | 8.0 | 0.00 | 0.00 | 0.00 | 45 | 1018.1 |
| 20260505041103 | 74 | 181 | 2.0 | 8.0 | 0.00 | 0.00 | 0.00 | 45 | 1018.1 |
| 20260505040603 | 74 | 240 | 3.0 | 8.0 | 0.00 | 0.00 | 0.00 | 46 | 1018.0 |
| 20260505040109 | 74 | 261 | 3.0 | 8.0 | 0.00 | 0.00 | 0.00 | 44 | 1018.0 |
| 20260505035607 | 74 | 203 | 4.0 | 8.0 | 0.00 | 0.00 | 0.00 | 45 | 1018.1 |
| 20260505035109 | 74 | 254 | 2.0 | 10.0 | 0.00 | 0.00 | 0.00 | 44 | 1018.0 |
| 20260505034606 | 74 | 284 | 6.0 | 10.0 | 0.00 | 0.00 | 0.00 | 44 | 1017.9 |
| 20260505034108 | 74 | 259 | 4.0 | 10.0 | 0.00 | 0.00 | 0.00 | 44 | 1018.0 |
| 20260505033607 | 74 | 272 | 3.0 | 10.0 | 0.00 | 0.00 | 0.00 | 46 | 1018.2 |
| 20260505033534 | 74 | 261 | 4.0 | 11.0 | 0.00 | 0.01 | 0.00 | 45 | 1018.3 |
| 20260505032607 | 74 | 275 | 5.0 | 11.0 | 0.00 | 0.02 | 0.00 | 46 | 1018.2 |
| 20260505032547 | 74 | 225 | 3.0 | 11.0 | 0.00 | 0.02 | 0.00 | 47 | 1018.3 |
| 20260505031958 | 73 | 256 | 5.0 | 11.0 | 0.00 | 0.02 | 0.00 | 47 | 1018.2 |
| 20260505031117 | 73 | 240 | 3.0 | 11.0 | 0.00 | 0.02 | 0.00 | 47 | 1018.3 |
| 20260505030951 | 72 | 200 | 3.0 | 16.0 | 0.00 | 0.02 | 0.00 | 47 | 1018.4 |
| 20260505030105 | 72 | 248 | 9.0 | 16.0 | 0.00 | 0.02 | 0.00 | 47 | 1018.4 |
| 20260505025605 | 72 | 284 | 6.0 | 10.0 | 0.00 | 0.02 | 0.00 | 46 | 1018.4 |
| 20260505025519 | 72 | 250 | 6.0 | 12.0 | 0.00 | 0.02 | 0.00 | 48 | 1018.5 |
| 20260505024603 | 72 | 219 | 7.0 | 17.0 | 0.00 | 0.02 | 0.00 | 49 | 1018.6 |
| 20260505024504 | 72 | 257 | 9.0 | 17.0 | 0.00 | 0.02 | 0.00 | 47 | 1018.6 |
| 20260505023603 | 72 | 266 | 5.0 | 15.0 | 0.00 | 0.02 | 0.00 | 49 | 1018.6 |
| 20260505023104 | 72 | 241 | 4.0 | 15.0 | 0.00 | 0.03 | 0.00 | 50 | 1018.6 |
| 20260505022609 | 71 | 329 | 5.0 | 13.0 | 0.00 | 0.04 | 0.00 | 50 | 1018.7 |
| 20260505022108 | 71 | 265 | 6.0 | 12.0 | 0.00 | 0.05 | 0.00 | 49 | 1018.7 |
| 20260505021606 | 71 | 255 | 8.0 | 16.0 | 0.00 | 0.06 | 0.00 | 50 | 1018.7 |
| 20260505021107 | 71 | 249 | 8.0 | 16.0 | 0.00 | 0.07 | 0.00 | 50 | 1018.8 |
| 20260505020608 | 71 | 248 | 6.0 | 14.0 | 0.00 | 0.08 | 0.00 | 50 | 1018.9 |
| 20260505020109 | 71 | 279 | 7.0 | 12.0 | 0.00 | 0.08 | 0.00 | 51 | 1018.7 |
| 20260505015607 | 71 | 269 | 8.0 | 13.0 | 0.00 | 0.08 | 0.00 | 51 | 1018.8 |
| 20260505015106 | 71 | 261 | 8.0 | 13.0 | 0.00 | 0.08 | 0.00 | 51 | 1018.9 |
| 20260505014608 | 70 | 254 | 6.0 | 14.0 | 0.00 | 0.09 | 0.00 | 52 | 1019.1 |
| 20260505014532 | 70 | 277 | 8.0 | 14.0 | 0.00 | 0.09 | 0.00 | 53 | 1019.2 |
| 20260505013605 | 70 | 267 | 7.0 | 16.0 | 0.00 | 0.09 | 0.00 | 54 | 1019.3 |
| 20260505013105 | 69 | 279 | 7.0 | 17.0 | 0.00 | 0.09 | 0.00 | 55 | 1019.3 |
| 20260505012606 | 69 | 273 | 10.0 | 17.0 | 0.00 | 0.09 | 0.00 | 56 | 1019.4 |
| 20260505012529 | 69 | 289 | 6.0 | 15.0 | 0.00 | 0.10 | 0.00 | 56 | 1019.4 |
| 20260505011606 | 69 | 237 | 9.0 | 15.0 | 0.00 | 0.10 | 0.00 | 57 | 1019.3 |
| 20260505011112 | 68 | 248 | 9.0 | 15.0 | 0.00 | 0.10 | 0.00 | 58 | 1019.3 |
| 20260505010603 | 68 | 246 | 8.0 | 15.0 | 0.00 | 0.11 | 0.00 | 57 | 1019.3 |
| 20260505010104 | 68 | 266 | 6.0 | 14.0 | 0.00 | 0.11 | 0.00 | 58 | 1019.5 |
| 20260505005610 | 68 | 262 | 8.0 | 17.0 | 0.00 | 0.11 | 0.00 | 57 | 1019.6 |
| 20260505005106 | 68 | 254 | 9.0 | 17.0 | 0.00 | 0.11 | 0.00 | 57 | 1019.7 |
| 20260505004612 | 67 | 309 | 7.0 | 14.0 | 0.00 | 0.11 | 0.00 | 58 | 1019.8 |
| 20260505004458 | 67 | 263 | 10.0 | 16.0 | 0.00 | 0.11 | 0.00 | 58 | 1019.7 |
| 20260505003610 | 67 | 284 | 8.0 | 16.0 | 0.00 | 0.11 | 0.00 | 58 | 1019.6 |
| 20260505003111 | 67 | 273 | 7.0 | 15.0 | 0.00 | 0.11 | 0.00 | 58 | 1020.0 |
| 20260505002606 | 67 | 239 | 6.0 | 13.0 | 0.00 | 0.11 | 0.00 | 58 | 1019.9 |
| 20260505002107 | 67 | 288 | 6.0 | 13.0 | 0.00 | 0.11 | 0.00 | 59 | 1019.9 |
| 20260505001602 | 67 | 266 | 6.0 | 13.0 | 0.00 | 0.11 | 0.00 | 59 | 1019.9 |
| 20260505001056 | 67 | 238 | 4.0 | 12.0 | 0.00 | 0.11 | 0.00 | 60 | 1019.9 |
| 20260505000852 | 66 | 263 | 8.0 | 16.0 | 0.00 | 0.11 | 0.00 | 60 | 1020.0 |
| 20260504235602 | 66 | 296 | 10.0 | 16.0 | 0.00 | 0.11 | 0.00 | 59 | 1019.8 |
| 20260504235053 | 66 | 295 | 8.0 | 16.0 | 0.00 | 0.11 | 0.00 | 60 | 1020.0 |
| 20260504234552 | 66 | 284 | 8.0 | 16.0 | 0.00 | 0.11 | 0.00 | 60 | 1020.1 |
| 20260504234052 | 66 | 220 | 5.0 | 15.0 | 0.00 | 0.11 | 0.00 | 60 | 1020.2 |
| 20260504233547 | 66 | 270 | 5.0 | 15.0 | 0.00 | 0.11 | 0.00 | 60 | 1020.2 |
| 20260504233042 | 65 | 263 | 3.0 | 13.0 | 0.00 | 0.11 | 0.00 | 61 | 1020.4 |
| 20260504232541 | 65 | 271 | 4.0 | 13.0 | 0.00 | 0.11 | 0.00 | 62 | 1020.3 |
| 20260504232039 | 65 | 291 | 6.0 | 12.0 | 0.00 | 0.11 | 0.00 | 62 | 1020.2 |
| 20260504231540 | 65 | 298 | 8.0 | 12.0 | 0.00 | 0.11 | 0.00 | 62 | 1020.3 |
| 20260504231039 | 65 | 249 | 6.0 | 12.0 | 0.00 | 0.11 | 0.00 | 62 | 1020.3 |
| 20260504230536 | 64 | 246 | 6.0 | 13.0 | 0.00 | 0.11 | 0.00 | 62 | 1020.2 |
| 20260504230034 | 64 | 267 | 4.0 | 13.0 | 0.00 | 0.11 | 0.00 | 63 | 1020.1 |
| 20260504225533 | 64 | 263 | 6.0 | 13.0 | 0.00 | 0.11 | 0.00 | 64 | 1020.0 |
| 20260504225031 | 63 | 290 | 8.0 | 13.0 | 0.00 | 0.11 | 0.00 | 65 | 1020.0 |
| 20260504224532 | 63 | 267 | 6.0 | 10.0 | 0.00 | 0.11 | 0.00 | 67 | 1020.0 |
| 20260504224031 | 63 | 319 | 5.0 | 10.0 | 0.00 | 0.11 | 0.00 | 67 | 1019.9 |
| 20260504223531 | 62 | 281 | 6.0 | 10.0 | 0.00 | 0.11 | 0.00 | 68 | 1020.0 |
| 20260504223032 | 62 | 267 | 4.0 | 9.0 | 0.00 | 0.11 | 0.00 | 69 | 1020.1 |
| 20260504222532 | 62 | 276 | 5.0 | 9.0 | 0.00 | 0.11 | 0.00 | 72 | 1020.2 |
| 20260504222039 | 61 | 280 | 4.0 | 8.0 | 0.00 | 0.11 | 0.00 | 74 | 1020.1 |
| 20260504222005 | 60 | 315 | 4.0 | 7.0 | 0.00 | 0.11 | 0.00 | 78 | 1020.2 |
| 20260504221035 | 58 | 284 | 5.0 | 7.0 | 0.00 | 0.11 | 0.00 | 83 | 1020.2 |
| 20260504220530 | 58 | 271 | 3.0 | 6.0 | 0.00 | 0.11 | 0.00 | 84 | 1020.1 |
| 20260504220031 | 57 | 282 | 1.0 | 7.0 | 0.00 | 0.11 | 0.00 | 86 | 1020.0 |
| 20260504215531 | 57 | 285 | 3.0 | 7.0 | 0.00 | 0.11 | 0.00 | 87 | 1020.0 |
| 20260504215027 | 56 | 280 | 4.0 | 7.0 | 0.00 | 0.11 | 0.00 | 88 | 1019.7 |
| 20260504214953 | 56 | 271 | 3.0 | 6.0 | 0.00 | 0.11 | 0.00 | 89 | 1019.6 |
| 20260504214022 | 56 | 297 | 3.0 | 6.0 | 0.00 | 0.11 | 0.00 | 89 | 1019.6 |
| 20260504213518 | 55 | 304 | 3.0 | 5.0 | 0.00 | 0.11 | 0.00 | 89 | 1019.5 |
| 20260504213145 | 55 | 281 | 1.0 | 4.0 | 0.00 | 0.11 | 0.00 | 89 | 1019.3 |
| 20260504213141 | 55 | 289 | 2.0 | 5.0 | 0.00 | 0.11 | 0.00 | 89 | 1019.3 |
| 20260504213110 | 55 | 291 | 3.0 | 5.0 | 0.00 | 0.11 | 0.00 | 89 | 1019.3 |
| 20260504211516 | 55 | 286 | 2.0 | 4.0 | 0.00 | 0.11 | 0.00 | 89 | 1019.3 |
| 20260504211011 | 55 | 302 | 2.0 | 3.0 | 0.00 | 0.11 | 0.00 | 89 | 1019.3 |
| 20260504210509 | 55 | 288 | 1.0 | 3.0 | 0.00 | 0.11 | 0.00 | 89 | 1019.3 |
| 20260504210008 | 55 | 281 | 2.0 | 3.0 | 0.00 | 0.11 | 0.00 | 89 | 1019.2 |
| 20260504205512 | 55 | 279 | 1.0 | 3.0 | 0.00 | 0.11 | 0.00 | 89 | 1019.0 |
| 20260504205007 | 55 | 271 | 0.0 | 2.0 | 0.00 | 0.11 | 0.00 | 89 | 1019.1 |
| 20260504204520 | 56 | 271 | 1.0 | 4.0 | 0.00 | 0.11 | 0.00 | 89 | 1018.9 |
| 20260504204008 | 56 | 272 | 1.0 | 4.0 | 0.00 | 0.11 | 0.00 | 89 | 1018.7 |
| 20260504203514 | 56 | 263 | 2.0 | 4.0 | 0.00 | 0.11 | 0.00 | 89 | 1018.6 |
| 20260504203002 | 56 | 283 | 3.0 | 4.0 | 0.00 | 0.11 | 0.00 | 89 | 1018.6 |
| 20260504202840 | 56 | 294 | 2.0 | 4.0 | 0.00 | 0.11 | 0.00 | 88 | 1018.6 |
| 20260504202007 | 56 | 271 | 2.0 | 4.0 | 0.00 | 0.11 | 0.00 | 89 | 1018.4 |
| 20260504201515 | 56 | 283 | 2.0 | 4.0 | 0.00 | 0.11 | 0.00 | 88 | 1018.3 |
| 20260504201002 | 56 | 280 | 2.0 | 4.0 | 0.00 | 0.11 | 0.00 | 88 | 1018.4 |
| 20260504200505 | 56 | 277 | 2.0 | 4.0 | 0.00 | 0.11 | 0.00 | 88 | 1018.3 |
| 20260504200004 | 56 | 269 | 2.0 | 4.0 | 0.00 | 0.11 | 0.00 | 88 | 1018.3 |
| 20260504195502 | 56 | 268 | 2.0 | 4.0 | 0.00 | 0.11 | 0.00 | 88 | 1018.3 |
| 20260504195349 | 56 | 239 | 2.0 | 4.0 | 0.00 | 0.11 | 0.00 | 88 | 1018.2 |
| 20260504194506 | 56 | 253 | 3.0 | 4.0 | 0.00 | 0.11 | 0.00 | 88 | 1018.0 |
| 20260504194356 | 57 | 266 | 3.0 | 4.0 | 0.00 | 0.11 | 0.00 | 88 | 1018.1 |
| 20260504193506 | 57 | 276 | 3.0 | 4.0 | 0.00 | 0.11 | 0.00 | 88 | 1018.0 |
| 20260504193130 | 57 | 281 | 2.0 | 4.0 | 0.00 | 0.11 | 0.00 | 87 | 1018.0 |
| 20260504192507 | 57 | 271 | 2.0 | 6.0 | 0.00 | 0.11 | 0.00 | 87 | 1018.0 |
| 20260504192007 | 57 | 269 | 3.0 | 6.0 | 0.00 | 0.11 | 0.00 | 87 | 1018.0 |
| 20260504191507 | 57 | 267 | 2.0 | 6.0 | 0.00 | 0.11 | 0.00 | 87 | 1018.0 |
| 20260504191007 | 57 | 267 | 3.0 | 6.0 | 0.00 | 0.11 | 0.00 | 87 | 1017.9 |
| 20260504190509 | 57 | 268 | 3.0 | 4.0 | 0.00 | 0.11 | 0.00 | 87 | 1017.8 |
| 20260504190008 | 57 | 282 | 2.0 | 4.0 | 0.00 | 0.11 | 0.00 | 87 | 1017.8 |
| 20260504185852 | 57 | 271 | 2.0 | 4.0 | 0.00 | 0.11 | 0.00 | 86 | 1017.5 |
| 20260504185006 | 57 | 275 | 1.0 | 3.0 | 0.00 | 0.11 | 0.00 | 86 | 1017.4 |
| 20260504184506 | 57 | 267 | 2.0 | 3.0 | 0.00 | 0.11 | 0.00 | 86 | 1017.3 |
| 20260504184441 | 57 | 273 | 1.0 | 3.0 | 0.00 | 0.11 | 0.00 | 86 | 1017.4 |
| 20260504183504 | 58 | 278 | 1.0 | 3.0 | 0.00 | 0.11 | 0.00 | 86 | 1017.2 |
| 20260504183335 | 58 | 270 | 2.0 | 4.0 | 0.00 | 0.11 | 0.00 | 86 | 1017.1 |
| 20260504182506 | 58 | 271 | 2.0 | 4.0 | 0.00 | 0.11 | 0.00 | 86 | 1017.1 |
| 20260504182004 | 58 | 271 | 2.0 | 4.0 | 0.00 | 0.11 | 0.00 | 86 | 1017.0 |
| 20260504181503 | 58 | 263 | 2.0 | 4.0 | 0.00 | 0.11 | 0.00 | 85 | 1016.9 |
| 20260504181004 | 58 | 267 | 3.0 | 4.0 | 0.00 | 0.11 | 0.00 | 85 | 1017.1 |
| 20260504180504 | 58 | 263 | 3.0 | 4.0 | 0.00 | 0.11 | 0.00 | 85 | 1017.0 |
| 20260504180353 | 58 | 278 | 1.0 | 3.0 | 0.00 | 0.11 | 0.00 | 84 | 1017.0 |
| 20260504175504 | 58 | 271 | 1.0 | 3.0 | 0.00 | 0.11 | 0.00 | 84 | 1017.1 |
| 20260504175003 | 58 | 268 | 2.0 | 3.0 | 0.00 | 0.11 | 0.00 | 84 | 1017.1 |
| 20260504174503 | 58 | 263 | 2.0 | 3.0 | 0.00 | 0.11 | 0.00 | 84 | 1017.0 |
| 20260504174004 | 59 | 268 | 1.0 | 4.0 | 0.00 | 0.11 | 0.00 | 84 | 1017.0 |
| 20260504173455 | 59 | 268 | 1.0 | 4.0 | 0.00 | 0.11 | 0.00 | 84 | 1016.9 |
| 20260504172811 | 60 | 268 | 0.0 | 3.0 | 0.00 | 0.11 | 0.00 | 84 | 1017.1 |
| 20260504171942 | 60 | 271 | 0.0 | 3.0 | 0.00 | 0.11 | 0.00 | 84 | 1017.1 |
| 20260504171441 | 60 | 271 | 1.0 | 3.0 | 0.00 | 0.11 | 0.00 | 83 | 1017.2 |
| 20260504170942 | 60 | 272 | 2.0 | 3.0 | 0.00 | 0.11 | 0.00 | 83 | 1017.2 |
| 20260504170727 | 60 | 272 | 1.0 | 2.0 | 0.00 | 0.11 | 0.00 | 83 | 1017.2 |
| 20260504170606 | 60 | 272 | 1.0 | 3.0 | 0.00 | 0.11 | 0.00 | 83 | 1017.3 |
| 20260504160415 | 62 | 266 | 2.0 | 6.0 | 0.00 | 0.11 | 0.00 | 85 | 1017.5 |
| 20260504150847 | 63 | 211 | 1.0 | 2.0 | 0.00 | 0.11 | 0.00 | 88 | 1017.1 |
| 20260504150345 | 63 | 275 | 0.0 | 3.0 | 0.00 | 0.11 | 0.00 | 88 | 1017.2 |
| 20260504150239 | 63 | 278 | 0.0 | 4.0 | 0.00 | 0.11 | 0.00 | 88 | 1017.3 |
| 20260504150234 | 63 | 277 | 1.0 | 4.0 | 0.00 | 0.11 | 0.00 | 88 | 1017.4 |
| 20260504150223 | 63 | 278 | 2.0 | 4.0 | 0.00 | 0.11 | 0.00 | 88 | 1017.4 |
| 20260504141331 | 64 | 265 | 2.0 | 6.0 | 0.00 | 0.11 | 0.00 | 88 | 1017.2 |
| 20260504140830 | 64 | 257 | 2.0 | 6.0 | 0.00 | 0.11 | 0.00 | 87 | 1017.3 |
| 20260504140334 | 64 | 263 | 2.0 | 6.0 | 0.00 | 0.11 | 0.00 | 87 | 1017.3 |
| 20260504130343 | 65 | 295 | 2.0 | 6.0 | 0.00 | 0.11 | 0.11 | 83 | 1017.3 |
| 20260504130200 | 65 | 267 | 2.0 | 8.0 | 0.00 | 0.11 | 0.11 | 83 | 1017.2 |
| 20260504120306 | 66 | 273 | 2.0 | 4.0 | 0.00 | 0.11 | 0.11 | 81 | 1017.0 |
| 20260504110138 | 67 | 342 | 3.0 | 8.0 | 0.00 | 0.11 | 0.11 | 80 | 1016.6 |
| 20260504100308 | 67 | 32 | 4.0 | 6.0 | 0.00 | 0.11 | 0.11 | 81 | 1015.9 |
| 20260504081750 | 67 | 49 | 3.0 | 7.0 | 0.00 | 0.11 | 0.11 | 84 | 1016.1 |
| 20260504081252 | 67 | 17 | 2.0 | 6.0 | 0.00 | 0.11 | 0.11 | 84 | 1015.9 |
| 20260504080751 | 67 | 38 | 3.0 | 5.0 | 0.00 | 0.11 | 0.11 | 84 | 1015.9 |
| 20260504080548 | 67 | 50 | 1.0 | 3.0 | 0.00 | 0.11 | 0.11 | 84 | 1015.9 |
| 20260504080422 | 67 | 49 | 2.0 | 4.0 | 0.00 | 0.11 | 0.11 | 84 | 1016.0 |